Wind_Speed
1 1 1 1 1 2 2 3 4 4 4 5 5 5 5 5 6 6 7 8 8 8 9 10 10 10 10 10 11 11 12 13 13 13 13 14 14 13 13 13 13 12 12
2 2 1 1 2 2 4 4 4 5 5 5 5 6 6 6 6 6 6 7 8 9 9 10 10 11 11 11 12 11 11 13 14 14 15 14 14 14 14 14 14 13 12
2 2 2 2 3 3 3 4 4 5 5 6 6 6 7 7 7 7 7 7 8 9 9 10 11 11 11 12 12 12 12 12 14 15 16 16 16 15 15 15 15 15 14
3 3 3 3 2 3 3 4 4 5 6 6 6 7 7 8 9 9 9 9 9 9 9 10 10 10 11 12 13 13 13 13 13 13 14 15 15 16 16 16 15 15 15
3 3 3 3 4 4 4 4 5 5 6 7 7 7 8 9 9 10 10 10 11 11 11 11 11 11 12 12 13 14 14 14 13 13 14 15 16 16 17 17 16 16 16
4 4 4 4 5 5 5 6 6 6 7 7 8 8 9 9 10 10 11 11 11 12 12 13 13 13 13 13 14 14 14 14 14 14 14 16 17 18 18 17 16 17 17
5 5 6 6 6 6 6 6 7 7 7 7 8 9 9 10 10 11 12 12 13 13 14 14 14 15 15 15 15 15 15 15 15 15 15 16 16 17 18 17 18 18 18
6 6 7 7 7 8 8 8 8 8 8 9 9 9 10 11 12 12 12 13 14 15 15 15 15 16 16 16 17 17 17 17 16 16 17 17 17 17 17 18 19 19 20
8 7 8 9 9 10 10 10 9 9 10 10 10 11 12 13 14 14 14 14 15 15 16 16 16 17 18 18 18 18 18 18 18 17 17 17 17 18 18 18 19 20 20
9 9 9 10 10 10 10 10 11 11 12 12 12 13 14 14 15 15 16 16 16 16 17 18 18 18 19 18 18 19 19 20 20 19 19 19 19 19 19 20 21 21 21
11 11 11 11 11 11 11 12 13 13 13 13 14 14 15 15 16 16 17 17 17 18 18 19 19 20 19 20 20 20 20 20 21 21 21 21 21 21 21 21 22 23 23
12 13 13 13 12 13 13 14 14 15 15 15 16 16 16 17 17 17 18 18 18 18 19 19 20 21 21 21 21 22 22 22 23 23 23 23 23 23 23 23 24 25 24
14 13 13 14 13 14 14 14 15 15 16 16 16 17 17 18 18 19 19 19 19 19 19 20 21 22 23 23 23 24 24 24 25 25 25 25 25 25 25 26 26 26 25
14 14 14 14 14 14 15 15 16 16 16 16 17 17 18 19 19 20 20 21 21 21 22 22 22 23 24 24 25 26 26 26 27 27 27 27 28 28 28 28 28 28 28
16 15 15 15 15 16 17 17 17 17 18 18 18 18 18 19 20 21 22 22 23 23 24 24 25 24 25 25 25 26 27 27 28 29 29 29 29 30 30 30 30 30 29
16 16 16 17 17 18 18 19 19 19 19 19 19 19 19 20 21 22 22 23 24 25 25 26 26 26 26 27 27 27 28 28 29 30 30 31 30 30 29 30 30 30 30
18 19 19 19 19 19 19 20 20 19 19 20 21 21 21 21 22 23 23 24 25 26 26 27 28 28 27 28 28 29 29 30 30 30 30 31 31 31 31 30 29 29 29
20 20 21 21 21 21 21 21 21 21 21 21 22 22 23 23 24 24 25 26 26 27 28 28 29 30 29 30 30 30 30 31 31 31 31 31 32 33 32 31 31 30 30
21 22 22 22 22 22 23 23 23 23 23 23 24 24 24 24 25 25 26 27 27 27 28 29 29 30 30 30 30 30 30 30 30 30 31 32 32 33 33 33 33 32 31
23 23 23 23 23 23 23 23 23 23 24 25 25 26 26 26 26 26 26 27 27 28 28 29 30 30 30 30 30 30 30 30 31 31 31 32 31 32 33 34 33 32 32
24 24 23 23 24 24 25 24 23 23 23 24 25 26 26 27 27 28 28 28 29 28 29 31 31 30 30 30 30 30 30 30 31 31 30 30 30 30 31 33 33 32 33
25 24 24 24 24 25 25 25 25 25 25 25 25 26 26 26 27 27 28 28 28 29 29 29 29 29 30 29 29 29 29 30 30 30 30 30 29 29 30 31 32 32 33
24 24 24 25 25 26 27 26 27 26 26 27 27 27 28 28 27 27 28 29 29 29 29 30 29 29 30 30 30 29 29 29 30 30 30 30 30 29 30 30 31 32 33
25 25 25 25 26 27 27 27 27 27 27 27 28 28 27 28 28 28 28 29 29 29 29 29 29 30 30 30 29 29 29 29 30 31 30 30 30 29 28 28 29 30 31
26 26 26 27 27 27 27 28 28 28 28 27 28 28 28 27 28 28 29 29 29 29 30 30 30 30 30 30 30 29 29 29 29 30 31 30 29 29 28 28 29 29 31
26 26 27 27 27 27 27 28 28 28 28 28 27 28 28 28 28 28 28 29 30 30 31 30 29 29 29 30 30 29 29 29 30 30 30 30 29 28 28 28 28 28 30
Wind_Direction
307 257 246 211 243 255 246 243 240 236 241 250 252 250 249 253 253 251 254 252 251 248 246 245 246 250 252 249 246 244 244 244 244 242 242 241 241 242 242 241 242 244 247
324 314 291 265 267 262 265 262 256 249 249 257 260 254 252 252 251 251 257 256 251 250 250 248 247 250 252 253 249 248 250 247 244 245 243 242 241 241 243 242 242 245 246
332 314 294 295 301 291 282 270 264 260 260 262 262 259 257 258 259 257 258 260 256 254 254 252 250 251 252 252 249 247 250 252 249 249 247 245 244 244 244 244 244 246 246
323 311 299 304 314 302 292 290 277 268 265 262 260 264 263 261 259 258 258 259 259 261 262 261 253 253 254 255 256 253 250 255 256 256 255 249 247 247 247 246 246 247 247
333 320 312 313 309 303 298 295 289 279 273 271 268 268 267 264 261 259 261 261 261 263 263 262 261 259 257 260 260 258 257 255 258 260 256 252 250 249 249 247 246 246 246
324 315 307 306 305 301 299 295 290 283 278 276 273 272 272 271 267 265 265 264 266 265 265 263 263 261 261 261 260 259 260 260 261 258 259 255 254 250 248 246 245 246 247
319 311 299 295 297 298 298 296 289 284 280 280 279 277 277 276 276 272 271 268 268 267 267 267 267 264 262 260 262 262 262 262 263 259 257 254 254 254 252 248 247 249 249
315 306 299 294 292 291 292 292 287 285 282 281 281 281 280 277 278 276 275 273 269 268 268 267 265 263 262 262 264 264 263 263 263 262 260 258 257 260 258 251 250 251 252
310 305 299 296 290 288 288 288 286 285 285 285 282 281 279 278 278 276 275 274 273 272 271 268 266 265 264 265 264 264 263 262 263 262 262 260 259 259 259 255 252 252 252
307 301 299 299 293 288 288 288 289 286 286 285 283 281 278 279 280 277 277 275 275 274 272 270 269 268 266 266 265 264 264 261 261 261 261 263 260 259 258 257 258 257 256
307 301 297 297 295 293 289 288 289 287 287 285 283 281 279 278 278 277 277 277 275 273 272 271 269 269 267 266 266 266 266 264 261 260 261 263 262 260 259 258 258 258 258
312 304 297 295 294 292 290 289 288 287 286 285 283 281 280 280 278 277 277 276 276 274 273 272 270 270 268 266 266 266 267 267 265 262 261 262 262 262 261 260 259 260 259
312 308 299 295 292 291 290 290 288 288 287 286 285 283 279 278 279 278 277 276 275 274 274 273 271 270 269 269 268 268 268 268 267 264 262 262 262 261 261 259 260 260 257
305 304 301 298 296 295 294 293 289 288 287 287 287 285 282 279 278 277 277 277 275 275 274 275 273 272 270 270 270 270 269 269 268 266 264 264 262 262 261 260 259 259 256
303 301 300 297 295 294 293 291 291 288 286 285 285 286 284 282 279 277 277 278 278 278 276 276 275 273 273 272 271 270 270 270 269 268 266 265 264 263 261 262 259 258 256
300 299 298 295 293 293 293 291 288 288 286 286 285 284 285 284 283 280 279 279 279 279 278 277 276 275 274 274 273 272 271 270 270 269 267 266 265 263 262 262 261 258 256
299 297 295 293 292 291 290 292 292 290 289 288 286 284 284 286 285 283 282 281 280 280 279 278 277 275 275 274 273 273 272 271 269 268 267 266 264 263 262 260 260 258 257
303 298 295 293 291 290 290 290 291 291 290 291 290 288 286 286 287 285 284 283 281 280 280 279 279 277 276 276 274 273 272 271 269 269 268 267 266 264 261 259 258 258 257
303 301 298 294 292 290 289 289 290 290 290 290 289 289 288 287 287 287 286 283 282 282 281 280 279 280 278 277 275 272 271 270 270 270 270 268 266 263 261 260 257 257 257
301 300 297 294 291 292 291 289 290 290 290 290 289 288 288 287 287 286 286 285 283 282 282 282 281 280 278 277 275 273 271 270 270 271 271 269 266 264 262 260 258 258 257
301 300 298 295 292 291 292 290 291 290 291 292 291 289 289 289 287 286 284 284 284 284 283 282 281 280 279 277 276 275 273 271 270 271 270 270 268 266 262 261 260 259 258
301 300 298 296 294 293 293 292 290 290 291 293 293 291 292 291 290 289 288 286 285 283 283 283 281 282 281 279 277 275 274 273 271 269 269 268 267 266 265 262 260 259 260
301 300 300 298 295 294 294 293 292 293 293 294 293 292 292 292 291 292 291 288 286 284 284 283 282 281 280 277 277 275 274 274 273 271 269 268 267 266 266 264 261 260 259
301 300 301 300 297 295 295 295 297 297 296 294 293 292 292 292 292 291 290 290 290 289 287 285 282 280 279 278 277 277 277 275 273 273 270 267 266 267 266 264 263 262 260
301 301 302 302 301 299 298 297 300 300 298 297 294 293 293 292 292 291 289 289 289 290 290 287 285 283 282 279 277 277 276 276 273 272 270 267 265 264 263 263 263 262 261
301 301 302 302 302 302 302 302 301 301 299 297 296 295 294 293 292 291 291 290 290 290 289 289 287 285 283 280 278 277 276 275 274 272 268 265 264 262 260 261 264 264 262
Height
5876 5876 5875 5875 5875 5874 5874 5874 5874 5874 5874 5874 5874 5874 5874 5874 5874 5874 5874 5874 5874 5874 5874 5874 5874 5875 5875 5876 5877 5877 5878 5879 5880 5881 5881 5882 5883 5884 5885 5885 5886 5887 5888
5876 5875 5875 5874 5874 5874 5873 5873 5873 5872 5872 5872 5872 5872 5872 5872 5872 5872 5872 5872 5872 5872 5872 5872 5872 5873 5873 5874 5874 5875 5875 5876 5877 5878 5879 5879 5880 5881 5882 5883 5884 5885 5885
5875 5875 5874 5874 5873 5872 5872 5872 5872 5871 5871 5871 5871 5871 5871 5870 5871 5871 5871 5870 5870 5870 5870 5870 5871 5871 5871 5872 5872 5873 5873 5874 5874 5875 5875 5876 5877 5878 5879 5880 5881 5882 5882
5874 5874 5873 5873 5872 5872 5871 5871 5871 5870 5870 5869 5869 5869 5869 5869 5869 5869 5869 5868 5868 5868 5868 5868 5869 5869 5869 5869 5869 5870 5870 5871 5871 5872 5872 5873 5874 5875 5876 5877 5878 5878 5879
5874 5873 5872 5872 5871 5871 5871 5870 5869 5869 5868 5868 5867 5867 5867 5867 5867 5867 5867 5866 5866 5866 5866 5866 5866 5866 5867 5867 5867 5867 5867 5868 5868 5868 5868 5869 5870 5871 5872 5873 5874 5875 5876
5872 5872 5871 5871 5870 5870 5869 5868 5868 5867 5866 5866 5865 5865 5865 5865 5864 5864 5864 5864 5863 5863 5864 5864 5864 5864 5864 5864 5864 5864 5864 5865 5865 5865 5865 5865 5866 5867 5868 5869 5870 5871 5872
5871 5870 5870 5869 5869 5868 5867 5866 5866 5865 5864 5864 5863 5863 5862 5862 5862 5862 5861 5861 5861 5861 5861 5860 5860 5860 5861 5861 5861 5861 5861 5861 5861 5862 5862 5862 5862 5863 5864 5865 5866 5867 5868
5870 5869 5868 5867 5866 5866 5865 5864 5863 5862 5862 5861 5861 5860 5860 5860 5859 5858 5858 5858 5858 5858 5858 5857 5857 5857 5857 5857 5857 5857 5857 5857 5858 5858 5859 5859 5859 5860 5860 5861 5862 5863 5864
5868 5867 5866 5865 5864 5863 5862 5861 5860 5860 5859 5858 5858 5858 5857 5857 5856 5856 5855 5854 5854 5854 5854 5853 5853 5853 5853 5853 5853 5853 5853 5853 5854 5854 5854 5854 5855 5856 5856 5857 5857 5858 5858
5866 5864 5863 5862 5861 5860 5859 5858 5857 5856 5856 5855 5854 5854 5854 5853 5853 5852 5851 5851 5850 5850 5849 5849 5849 5848 5848 5848 5848 5848 5848 5849 5849 5849 5849 5849 5850 5850 5851 5852 5852 5853 5853
5863 5862 5861 5859 5858 5857 5856 5855 5854 5853 5852 5851 5851 5850 5849 5849 5848 5848 5847 5846 5846 5845 5844 5844 5843 5843 5843 5843 5843 5843 5843 5843 5843 5844 5844 5844 5844 5845 5845 5846 5847 5847 5847
5860 5859 5857 5856 5854 5853 5852 5851 5850 5850 5849 5847 5846 5846 5845 5844 5844 5843 5842 5841 5841 5840 5839 5839 5838 5838 5837 5837 5837 5837 5837 5837 5837 5838 5838 5838 5839 5839 5839 5840 5840 5840 5841
5857 5855 5853 5852 5851 5849 5848 5847 5846 5845 5844 5843 5842 5841 5840 5839 5839 5838 5837 5836 5835 5835 5834 5833 5833 5832 5832 5831 5831 5831 5831 5831 5831 5831 5831 5832 5832 5833 5833 5833 5834 5834 5834
5854 5852 5850 5849 5847 5846 5844 5843 5842 5841 5839 5838 5837 5836 5835 5834 5833 5832 5831 5831 5830 5829 5829 5828 5827 5826 5825 5825 5824 5824 5824 5824 5823 5823 5823 5824 5825 5825 5826 5826 5827 5827 5827
5850 5848 5846 5845 5843 5841 5840 5838 5837 5835 5834 5833 5832 5831 5829 5828 5827 5826 5825 5825 5824 5823 5822 5821 5820 5819 5818 5818 5817 5817 5816 5816 5816 5816 5816 5816 5816 5817 5817 5818 5819 5820 5820
5846 5844 5842 5840 5839 5837 5835 5833 5831 5830 5829 5827 5826 5825 5823 5822 5821 5820 5819 5818 5817 5816 5815 5814 5812 5811 5810 5810 5809 5809 5808 5808 5808 5807 5808 5808 5808 5808 5809 5810 5810 5812 5813
5841 5839 5837 5835 5833 5831 5830 5828 5826 5825 5823 5822 5820 5819 5817 5816 5815 5813 5812 5811 5809 5808 5807 5806 5805 5803 5802 5801 5801 5800 5800 5799 5799 5799 5799 5799 5800 5800 5801 5802 5803 5804 5805
5835 5833 5831 5829 5827 5826 5824 5822 5820 5819 5817 5816 5814 5812 5811 5809 5808 5806 5805 5803 5802 5800 5799 5798 5797 5795 5794 5793 5792 5791 5791 5790 5790 5791 5790 5791 5791 5791 5792 5793 5794 5796 5797
5829 5827 5825 5823 5821 5819 5817 5815 5814 5812 5811 5809 5807 5806 5804 5802 5801 5799 5797 5795 5794 5792 5791 5790 5788 5787 5785 5784 5783 5782 5782 5781 5781 5781 5781 5781 5782 5782 5783 5785 5786 5787 5789
5823 5820 5818 5816 5814 5812 5810 5808 5807 5805 5803 5802 5800 5798 5796 5795 5793 5791 5789 5787 5785 5784 5782 5781 5780 5778 5776 5775 5774 5773 5773 5772 5772 5772 5772 5772 5772 5773 5774 5775 5777 5778 5779
5816 5813 5811 5809 5807 5805 5803 5801 5800 5798 5796 5794 5793 5791 5789 5786 5784 5783 5781 5779 5777 5775 5774 5772 5771 5769 5768 5766 5765 5764 5764 5763 5763 5763 5763 5763 5763 5763 5764 5766 5767 5768 5770
5810 5807 5804 5802 5800 5798 5796 5794 5793 5791 5789 5787 5785 5783 5781 5779 5776 5774 5772 5770 5768 5767 5765 5763 5762 5760 5759 5757 5756 5755 5755 5754 5754 5755 5754 5753 5753 5754 5755 5756 5757 5759 5760
5803 5800 5798 5795 5793 5791 5789 5787 5786 5783 5782 5780 5777 5775 5773 5771 5768 5766 5764 5762 5759 5757 5756 5754 5752 5751 5749 5748 5747 5747 5746 5745 5745 5744 5744 5744 5745 5745 5745 5746 5748 5749 5750
5797 5794 5792 5789 5787 5784 5782 5780 5778 5775 5774 5772 5769 5767 5765 5762 5760 5758 5755 5753 5751 5749 5747 5745 5743 5742 5740 5739 5738 5738 5737 5736 5735 5735 5735 5735 5735 5736 5736 5737 5738 5739 5740
5791 5788 5785 5782 5780 5777 5775 5773 5770 5768 5766 5763 5761 5758 5756 5754 5751 5749 5747 5745 5742 5740 5738 5736 5734 5732 5731 5730 5729 5728 5727 5727 5727 5726 5726 5726 5726 5726 5727 5728 5729 5730 5731
5785 5782 5779 5776 5773 5770 5768 5765 5762 5760 5758 5755 5753 5750 5748 5745 5743 5740 5738 5736 5734 5731 5729 5727 5725 5723 5722 5720 5719 5718 5718 5717 5717 5717 5716 5716 5716 5717 5718 5719 5720 5720 5721